Terug naar catalogus

SL-14 DEB

ActiefPO
NORAD 45269·DEBRIS·🇷🇺 Russia

Gelanceerd Aug 15, 1991 vanaf Plesetsk Cosmodrome

Loading…

Volgende Passages (komende 24 uur)

TLE

VersSource: Space-Track

Epoch: Sep 14, 2026, 04:43 UTC

1 45269U 91056F   26257.19697552  .00000045  00000-0  79487-4 0  9991
2 45269  82.5712  70.5050 0026566 197.9945 162.0242 13.20606045317453

Volg SL-14 DEB in realtime met AllMySat

Download on the App Store